When you browse on this site, cookies collect data to enhance your experience and personalize the content and advertising you see.
Visit our Privacy Policy to learn more. By continuing to use the site, you agree to this use of cookies and data.
  • In United Kingdom
  • List of Countries
  • For 7 days
  • Water Temperature
  • Weather Map
  • Weather Widgets
  • user-avatar
    Login

    Hourly Weather Gevaş

    Today, 26 August, Monday

    Time Temperature Precipitation Wind Pressure Humidity
    00:00 +18°C° 0 mm 1 mps 615 mmHg 55%
    01:00 +16°C° 0 mm 1 mps 615 mmHg 59%
    02:00 +16°C° 0 mm 1 mps 614 mmHg 63%
    03:00 +15°C° 0 mm 1 mps 614 mmHg 66%
    04:00 +15°C° 0 mm 1 mps 614 mmHg 61%
    05:00 +16°C° 0 mm 1 mps 615 mmHg 56%
    06:00 +16°C° 0 mm 1 mps 615 mmHg 51%
    07:00 +20°C° 0 mm 1 mps 616 mmHg 42%
    08:00 +24°C° 0 mm 1 mps 617 mmHg 34%
    09:00 +28°C° 0 mm 1 mps 618 mmHg 25%
    10:00 +29°C° 0 mm 2 mps 618 mmHg 22%
    11:00 +30°C° 0 mm 2 mps 618 mmHg 20%
    12:00 +31°C° 0 mm 3 mps 618 mmHg 17%
    13:00 +32°C° 0 mm 4 mps 618 mmHg 17%
    14:00 +33°C° 0 mm 4 mps 618 mmHg 16%
    15:00 +33°C° 0 mm 5 mps 618 mmHg 16%
    16:00 +32°C° 0 mm 4 mps 617 mmHg 17%
    17:00 +30°C° 0 mm 4 mps 617 mmHg 19%
    18:00 +29°C° 0 mm 3 mps 617 mmHg 21%
    19:00 +26°C° 0 mm 3 mps 616 mmHg 25%
    20:00 +24°C° 0 mm 3 mps 616 mmHg 29%
    21:00 +20°C° 0 mm 3 mps 616 mmHg 33%
    22:00 +20°C° 0 mm 3 mps 616 mmHg 35%
    23:00 +19°C° 0 mm 3 mps 616 mmHg 37%

    Tomorrow, 27 August, Tuesday

    Time Temperature Precipitation Wind Pressure Humidity
    00:00 +18°C° 0 mm 2 mps 616 mmHg 39%
    01:00 +18°C° 0 mm 2 mps 616 mmHg 41%
    02:00 +17°C° 0 mm 2 mps 615 mmHg 43%
    03:00 +17°C° 0 mm 2 mps 615 mmHg 46%
    04:00 +17°C° 0 mm 2 mps 615 mmHg 46%
    05:00 +17°C° 0 mm 2 mps 615 mmHg 45%
    06:00 +17°C° 0 mm 2 mps 615 mmHg 45%
    07:00 +20°C° 0 mm 2 mps 616 mmHg 36%
    08:00 +24°C° 0 mm 2 mps 617 mmHg 27%
    09:00 +28°C° 0 mm 2 mps 618 mmHg 18%
    10:00 +29°C° 0 mm 3 mps 618 mmHg 16%
    11:00 +30°C° 0 mm 5 mps 618 mmHg 15%
    12:00 +32°C° 0 mm 6 mps 618 mmHg 13%
    13:00 +32°C° 0 mm 6 mps 618 mmHg 13%
    14:00 +32°C° 0 mm 6 mps 617 mmHg 14%
    15:00 +32°C° 0 mm 6 mps 617 mmHg 15%
    16:00 +30°C° 0 mm 6 mps 616 mmHg 17%
    17:00 +29°C° 0 mm 6 mps 616 mmHg 19%
    18:00 +27°C° 0 mm 6 mps 616 mmHg 22%
    19:00 +25°C° 0 mm 5 mps 615 mmHg 27%
    20:00 +22°C° 0 mm 4 mps 615 mmHg 31%
    21:00 +19°C° 0 mm 4 mps 615 mmHg 36%
    22:00 +19°C° 0 mm 3 mps 615 mmHg 39%
    23:00 +18°C° 0 mm 3 mps 614 mmHg 41%

    Day after tomorrow, 28 August, Wednesday

    Time Temperature Precipitation Wind Pressure Humidity
    00:00 +17°C° 0 mm 3 mps 614 mmHg 43%
    01:00 +17°C° 0 mm 3 mps 614 mmHg 45%
    02:00 +17°C° 0 mm 2 mps 614 mmHg 46%
    03:00 +16°C° 0 mm 2 mps 614 mmHg 47%
    04:00 +16°C° 0 mm 2 mps 614 mmHg 47%
    05:00 +16°C° 0 mm 2 mps 614 mmHg 47%
    06:00 +16°C° 0 mm 2 mps 615 mmHg 47%
    07:00 +20°C° 0 mm 1 mps 616 mmHg 39%
    08:00 +23°C° 0 mm 1 mps 616 mmHg 31%
    09:00 +27°C° 0 mm 1 mps 617 mmHg 23%
    10:00 +28°C° 0 mm 2 mps 617 mmHg 20%
    11:00 +29°C° 0 mm 3 mps 617 mmHg 17%
    12:00 +30°C° 0 mm 3 mps 618 mmHg 15%
    13:00 +30°C° 0 mm 4 mps 617 mmHg 15%
    14:00 +32°C° 0 mm 4 mps 617 mmHg 14%
    15:00 +32°C° 0 mm 4 mps 617 mmHg 14%
    16:00 +29°C° 0 mm 3 mps 616 mmHg 17%
    17:00 +28°C° 0 mm 2 mps 616 mmHg 19%
    18:00 +27°C° 0 mm 2 mps 616 mmHg 21%
    19:00 +25°C° 0 mm 2 mps 616 mmHg 26%
    20:00 +21°C° 0 mm 2 mps 615 mmHg 30%
    21:00 +19°C° 0 mm 2 mps 615 mmHg 35%
    22:00 +19°C° 0 mm 2 mps 615 mmHg 36%
    23:00 +18°C° 0 mm 2 mps 615 mmHg 37%

    29 August, Thursday

    Time Temperature Precipitation Wind Pressure Humidity
    00:00 +18°C° 0 mm 2 mps 615 mmHg 38%
    01:00 +18°C° 0 mm 2 mps 615 mmHg 39%
    02:00 +18°C° 0 mm 2 mps 615 mmHg 40%
    03:00 +18°C° 0 mm 2 mps 615 mmHg 42%
    04:00 +17°C° 0 mm 2 mps 615 mmHg 43%
    05:00 +18°C° 0 mm 1 mps 615 mmHg 44%
    06:00 +18°C° 0 mm 1 mps 615 mmHg 45%
    07:00 +20°C° 0 mm 2 mps 616 mmHg 37%
    08:00 +25°C° 0 mm 2 mps 617 mmHg 28%
    09:00 +29°C° 0 mm 2 mps 618 mmHg 20%
    10:00 +30°C° 0 mm 3 mps 618 mmHg 18%
    11:00 +32°C° 0 mm 4 mps 618 mmHg 17%
    12:00 +33°C° 0 mm 4 mps 618 mmHg 16%
    13:00 +33°C° 0 mm 5 mps 618 mmHg 17%
    14:00 +32°C° 0 mm 5 mps 617 mmHg 19%
    15:00 +32°C° 0 mm 5 mps 617 mmHg 20%
    16:00 +29°C° 0.2 mm 5 mps 617 mmHg 26%
    17:00 +27°C° 0.2 mm 5 mps 616 mmHg 32%
    18:00 +23°C° 0.2 mm 5 mps 616 mmHg 38%
    19:00 +22°C° 0.1 mm 4 mps 616 mmHg 43%
    20:00 +21°C° 0.1 mm 4 mps 616 mmHg 48%
    21:00 +19°C° 0.1 mm 4 mps 615 mmHg 53%
    22:00 +19°C° 0 mm 3 mps 615 mmHg 52%
    23:00 +18°C° 0 mm 3 mps 615 mmHg 51%

    30 August, Friday

    Time Temperature Precipitation Wind Pressure Humidity
    00:00 +18°C° 0 mm 2 mps 614 mmHg 51%
    01:00 +18°C° 0 mm 2 mps 614 mmHg 49%
    02:00 +18°C° 0 mm 2 mps 614 mmHg 47%
    03:00 +19°C° 0 mm 2 mps 614 mmHg 46%
    04:00 +19°C° 0 mm 2 mps 614 mmHg 45%
    05:00 +19°C° 0 mm 2 mps 614 mmHg 43%
    06:00 +20°C° 0 mm 2 mps 614 mmHg 42%
    07:00 +24°C° 0 mm 3 mps 615 mmHg 35%
    08:00 +27°C° 0 mm 4 mps 615 mmHg 28%
    09:00 +30°C° 0 mm 5 mps 616 mmHg 20%
    10:00 +30°C° 0 mm 7 mps 616 mmHg 20%
    11:00 +32°C° 0 mm 10 mps 615 mmHg 19%
    12:00 +32°C° 0 mm 12 mps 615 mmHg 18%
    13:00 +32°C° 0 mm 12 mps 615 mmHg 18%
    14:00 +32°C° 0 mm 13 mps 615 mmHg 17%
    15:00 +33°C° 0 mm 13 mps 614 mmHg 16%
    16:00 +31°C° 0 mm 12 mps 614 mmHg 19%
    17:00 +29°C° 0 mm 11 mps 613 mmHg 21%
    18:00 +28°C° 0 mm 10 mps 612 mmHg 24%
    19:00 +24°C° 0 mm 8 mps 612 mmHg 30%
    20:00 +22°C° 0 mm 6 mps 612 mmHg 36%
    21:00 +19°C° 0 mm 4 mps 612 mmHg 43%
    22:00 +19°C° 0 mm 3 mps 611 mmHg 44%
    23:00 +18°C° 0 mm 3 mps 611 mmHg 46%

    31 August, Saturday

    Time Temperature Precipitation Wind Pressure Humidity
    00:00 +17°C° 0 mm 3 mps 611 mmHg 48%
    01:00 +17°C° 0 mm 3 mps 611 mmHg 49%
    02:00 +17°C° 0 mm 3 mps 611 mmHg 51%
    03:00 +16°C° 0 mm 2 mps 611 mmHg 52%
    04:00 +16°C° 0 mm 2 mps 611 mmHg 53%
    05:00 +15°C° 0 mm 2 mps 611 mmHg 54%
    06:00 +15°C° 0 mm 2 mps 611 mmHg 55%
    07:00 +18°C° 0 mm 2 mps 612 mmHg 45%
    08:00 +22°C° 0 mm 1 mps 613 mmHg 34%
    09:00 +25°C° 0 mm 1 mps 614 mmHg 24%
    10:00 +26°C° 0 mm 2 mps 614 mmHg 21%
    11:00 +28°C° 0 mm 3 mps 614 mmHg 19%
    12:00 +29°C° 0 mm 4 mps 614 mmHg 16%
    13:00 +29°C° 0 mm 4 mps 614 mmHg 16%
    14:00 +29°C° 0 mm 5 mps 613 mmHg 16%
    15:00 +30°C° 0 mm 5 mps 613 mmHg 16%
    16:00 +28°C° 0 mm 5 mps 613 mmHg 19%
    17:00 +27°C° 0 mm 4 mps 612 mmHg 21%
    18:00 +25°C° 0 mm 3 mps 612 mmHg 23%
    19:00 +22°C° 0 mm 3 mps 612 mmHg 28%
    20:00 +20°C° 0 mm 3 mps 612 mmHg 33%
    21:00 +18°C° 0 mm 2 mps 612 mmHg 37%
    22:00 +17°C° 0 mm 2 mps 612 mmHg 39%
    23:00 +17°C° 0 mm 2 mps 612 mmHg 40%
    Show more